Weather History for Frankfort, KY

Change the Weather History Date:

Thursday, November 17, 2011

  Actual Average Record
Temperature  
Mean Temperature 36 °F 46 °F  
Max Temperature 46 °F 56 °F 80 °F (1952)
Min Temperature 26 °F 35 °F 16 °F (1933)
Degree Days  
Heating Degree Days 29 19  
Month to date heating degree days 246 279  
Since 1 July heating degree days 654 620  
Cooling Degree Days 0 0  
Month to date cooling degree days 1 0  
Year to date cooling degree days 1286 1154  
Moisture  
Dew Point 20 °F    
Average Humidity 50    
Maximum Humidity 75    
Minimum Humidity 24    
Precipitation  
Precipitation 0.00 in 0.13 in 2.67 in (1921)
Month to date precipitation 2.74 2.00  
Year to date precipitation 56.47 39.88  
Sea Level Pressure  
Sea Level Pressure 30.26 in    
Wind  
Wind Speed 6 mph (WNW)    
Max Wind Speed 22 mph    
Max Gust Speed 30 mph    
Visibility 10 miles    
Events      
T = Trace of Precipitation, MM = Missing Value Source: NWS Daily Summary

Daily Weather History Graph

Daily Weather History Graph

Search for Another Location

Airport:

Trip Planner

Search our weather history database for the weather conditions in past years. The results will help you decide how hot, cold, wet, or windy it might be!

Date:

Astronomy

Nov. 17, 2011 Rise Set
Actual Time 7:22 AM EST 5:26 PM EST
Civil Twilight 6:54 AM EST 5:54 PM EST
Nautical Twilight 6:22 AM EST 6:26 PM EST
Astronomical Twilight 5:50 AM EST 6:57 PM EST
Moon 11:43 PM EST (11/17) 12:32 PM EST (11/17)
Length of Visible Light 11h 00m
Length of Day
10h 03m
Waning Gibbous, 60% of the Moon is Illuminated
Nov 17
Waning Gibbous
Nov 18
Last Quarter
Nov 25
New
Dec 2
First Quarter
Dec 10
Full

Hourly Weather History & Observations

Time (EST) Temp. Windchill Dew Point Humidity Pressure Visibility Wind Dir Wind Speed Gust Speed Precip Events Conditions
12:53 AM 37.9 °F 32.7 °F 26.1 °F 62% 30.12 in 10.0 mi NNW 6.9 mph - N/A   Clear
1:53 AM 37.0 °F 31.0 °F 26.1 °F 65% 30.14 in 10.0 mi NNW 8.1 mph - N/A   Clear
2:53 AM 36.0 °F 29.6 °F 25.0 °F 64% 30.15 in 10.0 mi NNW 8.1 mph - N/A   Clear
3:53 AM 36.0 °F 32.1 °F 25.0 °F 64% 30.16 in 10.0 mi NNW 4.6 mph - N/A   Partly Cloudy
4:53 AM 35.1 °F 30.1 °F 26.1 °F 70% 30.17 in 10.0 mi NW 5.8 mph - N/A   Overcast
5:53 AM 35.1 °F 31.0 °F 26.1 °F 70% 30.18 in 10.0 mi NW 4.6 mph - N/A   Overcast
6:53 AM 35.1 °F 28.6 °F 26.1 °F 70% 30.21 in 10.0 mi WNW 8.1 mph - N/A   Overcast
7:53 AM 36.0 °F - 26.1 °F 67% 30.24 in 10.0 mi Calm Calm - N/A   Overcast
9:53 AM 37.9 °F 33.5 °F 21.9 °F 53% 30.27 in 10.0 mi WNW 5.8 mph - N/A   Overcast
10:53 AM 41.0 °F 36.4 °F 19.9 °F 43% 30.27 in 10.0 mi West 6.9 mph - N/A   Clear
12:53 PM 44.1 °F 37.7 °F 17.1 °F 34% 30.24 in 10.0 mi West 12.7 mph - N/A   Clear
1:53 PM 44.1 °F 37.7 °F 16.0 °F 32% 30.24 in 10.0 mi West 12.7 mph 23.0 mph N/A   Mostly Cloudy
2:53 PM 45.0 °F 38.5 °F 14.0 °F 29% 30.24 in 10.0 mi West 13.8 mph 25.3 mph N/A   Partly Cloudy
3:53 PM 44.1 °F 38.6 °F 10.9 °F 26% 30.26 in 10.0 mi West 10.4 mph 24.2 mph N/A   Clear
4:53 PM 42.1 °F 36.1 °F 8.1 °F 25% 30.30 in 10.0 mi West 10.4 mph 19.6 mph N/A   Clear
5:53 PM 37.9 °F 34.4 °F 10.9 °F 33% 30.32 in 10.0 mi West 4.6 mph - N/A   Clear
6:53 PM 36.0 °F - 14.0 °F 41% 30.35 in 10.0 mi Calm Calm - N/A   Clear
7:53 PM 32.0 °F 28.7 °F 17.1 °F 54% 30.36 in 10.0 mi West 3.5 mph - N/A   Clear
8:53 PM 30.0 °F 26.5 °F 18.0 °F 61% 30.37 in 10.0 mi WSW 3.5 mph - N/A   Clear
9:53 PM 28.9 °F 23.9 °F 17.1 °F 61% 30.38 in 10.0 mi SW 4.6 mph - N/A   Clear
10:53 PM 27.0 °F - 19.9 °F 75% 30.38 in 10.0 mi Calm Calm - N/A   Clear
11:53 PM 27.0 °F 23.0 °F 18.0 °F 69% 30.38 in 10.0 mi WSW 3.5 mph - N/A   Clear